Weather Roundup
Issued by NWS

Home | Current Version | Previous Version | Graphics & Text | Print | Product List | Glossary Off
Versions: 1 2 3 4 5 6 7 8 9 10 11 12 13 14 15 16 17 18 19 20 21 22 23 24 25 26 27 28 29 30 31 32 33 34 35 36 37 38 39 40 41 42 43 44 45 46 47 48 49 50

000
NZUS93 KARX 211959
HRRWXR

CURRENT HOURLY OBSERVATIONS ACROSS
MUCH OF THE UPPER MISSISSIPPI VALLEY
NATIONAL WEATHER SERVICE LA CROSSE WI
300 PM CDT SUN SEP 21 2014


...SOUTHEAST MINNESOTA...


CITY           SKY/WX    TMP DP  RH WIND       PRES   REMARKS
ROCHESTER      MOSUNNY   63  46  54 N15G25    30.13S
ROCHESTER/MAYO FAIR      62  42  48 NW13G25   30.12S
WINONA         MOSUNNY   66  46  48 N10G21    30.08S
AUSTIN         PTSUNNY   63  48  59 NW17G24   30.13S
ALBERT LEA     PTSUNNY   63  46  55 N13G20    30.15R
DODGE CENTER   PTSUNNY   63  46  55 NW13G20   30.13S
PRESTON        MOSUNNY   60  51  72 N14       30.11S
OWATONNA       MOSUNNY   63  46  55 NW15      30.15S
FARIBAULT      PTSUNNY   68  43  40 NW12G23   30.15S
$$

...ELSEWHERE IN MINNESOTA...


CITY           SKY/WX    TMP DP  RH WIND       PRES   REMARKS
MINNEAPOLIS    MOSUNNY   65  47  52 NW14G26   30.14S
INTNL FALLS    SUNNY     62  44  51 VRB5      30.15S
DULUTH         MOSUNNY   63  38  39 NW14G21   30.11S
RED WING       MOSUNNY   66  45  45 N10G18    30.11R
REDWOOD FALLS  CLOUDY    65  51  60 NW14G20   30.20S
MANKATO        PTSUNNY   64  45  48 NW13G21   30.16S
WORTHINGTON    CLOUDY    64  46  52 N15G22    30.22S
FAIRMONT       CLOUDY    64  46  52 NW12      30.18S
$$

...SOUTHWEST WISCONSIN...


CITY           SKY/WX    TMP DP  RH WIND       PRES   REMARKS
LA CROSSE      MOSUNNY   68  45  43 N16       30.06R
PRAIRIE DU CHI PTSUNNY   67  47  48 NW12      30.05S
BOSCOBEL       MOSUNNY   66  44  45 NW14      30.05R
LONE ROCK      NOT AVBL
PLATTEVILLE    MOSUNNY   64  50  59 NW16      30.04S
FORT MC COY    PTSUNNY   64  42  45 NW14G23   30.06S
VIROQUA        FAIR      64  45  50 NW17G23   30.06R
WIS DELLS      MOSUNNY   63  42  46 NW14G23   30.03R
$$

...ELSEWHERE IN WISCONSIN...


CITY           SKY/WX    TMP DP  RH WIND       PRES   REMARKS
MILWAUKEE      PTSUNNY   60  51  72 N12G24    29.96R
MADISON        PTSUNNY   64  44  48 N18G26    30.00R
GREEN BAY      PTSUNNY   58  45  62 NW14G22   29.99R
EAU CLAIRE     NOT AVBL
BLACK RVR FLS  MOCLDY    65  42  43 NW15      30.05S
MEDFORD        CLOUDY    58  46  64 NW15      30.06R
WAUSAU         MOSUNNY   57  40  52 NW16G23   30.03R
WIS RAPIDS     PTSUNNY   63  43  48 N16       30.05R
MARSHFIELD     MOSUNNY   61  43  51 N18       30.05R
RICE LAKE      MOSUNNY   62  43  50 N12G21    30.12R
$$

...NORTHEAST IOWA...


CITY           SKY/WX    TMP DP  RH WIND       PRES   REMARKS
WATERLOO       CLOUDY    65  48  54 NW17G26   30.11S
DUBUQUE        PTSUNNY   63  52  67 NW16      30.05S
DECORAH        PTSUNNY   63  48  59 N14G21    30.08R
MASON CITY     PTSUNNY   63  47  55 N20G25    30.15F
CHARLES CITY   CLOUDY    63  48  59 NW15G23   30.13S
OELWEIN        CLOUDY    64  48  55 NW18      30.10S
$$

...ELSEWHERE IN IOWA...


CITY           SKY/WX    TMP DP  RH WIND       PRES   REMARKS
DES MOINES     PTSUNNY   71  47  42 N16       30.14S
IOWA CITY        N/A     63  52  67 NW9       30.11R
FORT DODGE     CLOUDY    66  46  48 N10G18    30.17F
MARSHALLTOWN   CLOUDY    64  48  56 N17G24    30.13S
CEDAR RAPIDS   CLOUDY    62  52  69 NW13      30.09S
$$

...NORTHERN ILLINOIS...


CITY           SKY/WX    TMP DP  RH WIND       PRES   REMARKS
CHICAGO-OHARE  PTSUNNY   67  50  54 N14G20    29.95R
DUPAGE         PTSUNNY   67  52  58 NW16G23   29.96S
CHICAGO-MIDWAY PTSUNNY   65  53  65 N10       29.95R
MOLINE         CLOUDY    64  50  60 N13       30.06R
ROCKFORD       PTSUNNY   65  49  56 NW16      30.00R
STERLING       PTSUNNY   64  52  63 N14G20    30.02S
PEORIA         CLOUDY    68  50  52 NW8G18    30.04R
$$

NOTE: "FAIR" INDICATES FEW OR NO CLOUDS BELOW 12,000 FEET WITH NO
SIGNIFICANT WEATHER AND/OR OBSTRUCTIONS TO VISIBILITY. WIND
SPEEDS ARE IN MILES-PER-HOUR.



USA.gov is the U.S. government's official web portal to all federal, state and local government web resources and services.